Location: Alta
(39.2070°N, 120.8111°W)
Time: 18:48:51
(UTC+00:00)

POLYITAN 1 - Pass Details

Date: 05 April 2023
Orbit: 575 x 592 km, 98.0° (Epoch: 01 June)

Event Time Altitude Azimuth Distance (km) Brightness Sun altitude
Rises 10:30:32 0° 9° (N) 2,807 ? -33.8°
Reaches altitude 10° 10:32:43 10° 7° (N) 1,900 ? -33.5°
Enters shadow 10:33:29 15° 5° (N) 1,588 ? -33.4°
